| time (UTC) | temp F | wind direction | speed MPH | gust MPH | rain 1hr in | rain 24hr in | rain mn in | humidity % | barometer mb |
| 20260506122113 | 56 | 41 | 0.0 | 0.0 | 0.20 | 1.58 | 1.28 | 1 | 1004.5 |
| 20260506121112 | 56 | 41 | 0.0 | 0.0 | 0.14 | 1.49 | 1.18 | 1 | 1004.5 |
| 20260506120112 | 56 | 41 | 1.0 | 4.0 | 0.19 | 1.49 | 1.18 | 1 | 1004.4 |
| 20260506115112 | 56 | 40 | 0.0 | 2.0 | 0.20 | 1.49 | 1.18 | 1 | 1004.4 |
| 20260506114112 | 56 | 40 | 0.0 | 0.0 | 0.17 | 1.46 | 1.16 | 1 | 1004.3 |
| 20260506113112 | 56 | 40 | 0.0 | 0.0 | 0.13 | 1.43 | 1.12 | 1 | 1004.3 |
| 20260506112112 | 56 | 40 | 0.0 | 0.0 | 0.09 | 1.39 | 1.08 | 1 | 1004.3 |
| 20260506111112 | 56 | 40 | 0.0 | 0.0 | 0.06 | 1.35 | 1.04 | 1 | 1004.3 |
| 20260506110112 | 56 | 40 | 0.0 | 0.0 | 0.01 | 1.30 | 0.99 | 1 | 1004.3 |
| 20260506105112 | 56 | 40 | 0.0 | 5.0 | 0.00 | 1.29 | 0.98 | 1 | 1004.2 |
| 20260506104112 | 56 | 36 | 0.0 | 6.0 | 0.00 | 1.29 | 0.98 | 1 | 1004.2 |
| 20260506103111 | 57 | 36 | 2.0 | 6.0 | 0.00 | 1.29 | 0.98 | 1 | 1004.3 |
| 20260506102111 | 57 | 20 | 1.0 | 4.0 | 0.00 | 1.29 | 0.98 | 1 | 1004.3 |
| 20260506101111 | 56 | 20 | 1.0 | 5.0 | 0.00 | 1.29 | 0.98 | 1 | 1004.2 |
| 20260506100111 | 56 | 13 | 0.0 | 0.0 | 0.00 | 1.29 | 0.98 | 1 | 1004.2 |
| 20260506095111 | 55 | 13 | 0.0 | 0.0 | 0.00 | 1.29 | 0.98 | 1 | 1004.1 |
| 20260506094111 | 56 | 13 | 0.0 | 0.0 | 0.01 | 1.29 | 0.98 | 1 | 1004.2 |
| 20260506093111 | 55 | 13 | 0.0 | 0.0 | 0.01 | 1.29 | 0.98 | 1 | 1004.1 |
| 20260506092111 | 56 | 13 | 1.0 | 4.0 | 0.01 | 1.29 | 0.98 | 1 | 1004.0 |
| 20260506091111 | 55 | 13 | 0.0 | 0.0 | 0.02 | 1.29 | 0.98 | 1 | 1004.1 |
| 20260506090110 | 54 | 13 | 0.0 | 0.0 | 0.02 | 1.29 | 0.98 | 1 | 1004.1 |
| 20260506085110 | 54 | 13 | 0.0 | 0.0 | 0.02 | 1.29 | 0.98 | 1 | 1004.2 |
| 20260506084110 | 53 | 13 | 0.0 | 0.0 | 0.02 | 1.28 | 0.98 | 1 | 1004.1 |
| 20260506083110 | 53 | 13 | 0.0 | 0.0 | 0.02 | 1.28 | 0.98 | 1 | 1004.0 |
| 20260506082110 | 53 | 13 | 0.0 | 0.0 | 0.03 | 1.28 | 0.98 | 1 | 1003.9 |
| 20260506081110 | 53 | 13 | 0.0 | 0.0 | 0.02 | 1.27 | 0.96 | 1 | 1003.9 |
| 20260506073110 | 53 | 13 | 1.0 | 4.0 | 0.02 | 1.26 | 0.95 | 1 | 1003.7 |
| 20260506072110 | 53 | 13 | 0.0 | 0.0 | 0.02 | 1.25 | 0.94 | 1 | 1003.7 |
| 20260506070109 | 52 | 13 | 0.0 | 0.0 | 0.02 | 1.24 | 0.94 | 1 | 1003.7 |
| 20260506062109 | 52 | 13 | 0.0 | 0.0 | 0.01 | 1.24 | 0.93 | 1 | 1003.8 |
| 20260506061109 | 52 | 13 | 0.0 | 0.0 | 0.01 | 1.24 | 0.93 | 1 | 1003.8 |
| 20260506060109 | 52 | 13 | 0.0 | 0.0 | 0.00 | 1.23 | 0.92 | 1 | 1003.7 |
| 20260506050113 | 52 | 13 | 0.0 | 0.0 | 0.01 | 1.23 | 0.92 | 1 | 1003.7 |
| 20260506045113 | 52 | 13 | 0.0 | 0.0 | 0.01 | 1.23 | 0.92 | 1 | 1003.8 |
| 20260506044113 | 52 | 13 | 0.0 | 0.0 | 0.01 | 1.23 | 0.92 | 1 | 1003.9 |
| 20260506043113 | 52 | 13 | 0.0 | 0.0 | 0.02 | 1.23 | 0.92 | 1 | 1003.9 |
| 20260506042113 | 52 | 13 | 0.0 | 0.0 | 0.02 | 1.22 | 0.91 | 1 | 1004.0 |
| 20260506041113 | 52 | 13 | 0.0 | 0.0 | 0.05 | 1.22 | 0.91 | 1 | 1003.9 |
| 20260506040112 | 52 | 13 | 0.0 | 0.0 | 0.08 | 1.22 | 0.91 | 1 | 1003.9 |
| 20260506034113 | 52 | 13 | 0.0 | 3.0 | 0.14 | 1.23 | 0.91 | 1 | 1003.9 |
| 20260506033112 | 52 | 13 | 0.0 | 0.0 | 0.14 | 1.21 | 0.90 | 1 | 1003.9 |
| 20260506032112 | 52 | 13 | 0.0 | 0.0 | 0.17 | 1.20 | 0.89 | 1 | 1003.9 |
| 20260506031112 | 52 | 13 | 0.0 | 0.0 | 0.17 | 1.18 | 0.87 | 1 | 1004.1 |
| 20260506025112 | 52 | 13 | 0.0 | 0.0 | 0.17 | 1.14 | 0.82 | 1 | 1004.4 |
| 20260506024112 | 52 | 13 | 0.0 | 0.0 | 0.16 | 1.09 | 0.77 | 1 | 1004.5 |
| 20260506023112 | 53 | 13 | 0.0 | 0.0 | 0.21 | 1.08 | 0.76 | 1 | 1004.6 |
| 20260506022112 | 53 | 13 | 0.0 | 0.0 | 0.23 | 1.05 | 0.72 | 1 | 1004.7 |
| 20260506021111 | 53 | 13 | 0.0 | 0.0 | 0.22 | 1.02 | 0.69 | 1 | 1004.7 |
| 20260506015111 | 53 | 13 | 0.0 | 0.0 | 0.23 | 0.97 | 0.65 | 1 | 1004.7 |
| 20260506014111 | 53 | 13 | 0.0 | 0.0 | 0.20 | 0.94 | 0.61 | 1 | 1004.8 |
| 20260506013111 | 53 | 13 | 0.0 | 0.0 | 0.16 | 0.87 | 0.54 | 1 | 1004.9 |
| 20260506012111 | 53 | 13 | 0.0 | 0.0 | 0.13 | 0.82 | 0.50 | 1 | 1004.8 |
| 20260506011111 | 53 | 13 | 0.0 | 0.0 | 0.14 | 0.80 | 0.47 | 1 | 1004.9 |
| 20260506010111 | 53 | 13 | 0.0 | 0.0 | 0.14 | 0.77 | 0.45 | 1 | 1004.9 |
| 20260506004111 | 54 | 13 | 0.0 | 0.0 | 0.14 | 0.73 | 0.41 | 1 | 1005.2 |
| 20260506003110 | 54 | 13 | 0.0 | 0.0 | 0.13 | 0.71 | 0.39 | 1 | 1005.2 |
| 20260506002111 | 54 | 13 | 0.0 | 0.0 | 0.13 | 0.69 | 0.36 | 1 | 1005.3 |
| 20260506001110 | 54 | 13 | 0.0 | 0.0 | 0.14 | 0.65 | 0.33 | 1 | 1005.4 |
| 20260506000110 | 54 | 13 | 0.0 | 0.0 | 0.17 | 0.63 | 0.31 | 1 | 1005.5 |
| 20260505234110 | 54 | 13 | 0.0 | 0.0 | 0.22 | 0.59 | 0.27 | 1 | 1005.7 |
| 20260505233110 | 54 | 13 | 0.0 | 0.0 | 0.23 | 0.57 | 0.25 | 1 | 1005.7 |
| 20260505232110 | 54 | 13 | 0.0 | 0.0 | 0.22 | 0.56 | 0.24 | 1 | 1005.7 |
| 20260505231110 | 54 | 13 | 0.0 | 0.0 | 0.18 | 0.51 | 0.19 | 1 | 1005.9 |
| 20260505230110 | 54 | 13 | 0.0 | 0.0 | 0.13 | 0.46 | 0.14 | 1 | 1005.9 |
| 20260505225109 | 54 | 13 | 0.0 | 0.0 | 0.07 | 0.39 | 0.06 | 1 | 1005.9 |
| 20260505224109 | 54 | 13 | 0.0 | 0.0 | 0.06 | 0.37 | 0.05 | 1 | 1005.9 |
| 20260505223109 | 54 | 13 | 0.0 | 0.0 | 0.05 | 0.35 | 0.02 | 1 | 1005.9 |
| 20260505222109 | 54 | 13 | 0.0 | 0.0 | 0.05 | 0.34 | 0.02 | 1 | 1005.8 |
| 20260505221109 | 54 | 13 | 0.0 | 0.0 | 0.05 | 0.33 | 0.01 | 1 | 1005.9 |
| 20260505220109 | 54 | 13 | 0.0 | 0.0 | 0.06 | 0.33 | 0.01 | 1 | 1005.8 |
| 20260505215109 | 54 | 13 | 0.0 | 0.0 | 0.06 | 0.31 | 0.31 | 1 | 1005.9 |
| 20260505214114 | 54 | 13 | 0.0 | 0.0 | 0.07 | 0.31 | 0.31 | 1 | 1005.9 |
| 20260505213114 | 55 | 13 | 0.0 | 0.0 | 0.08 | 0.30 | 0.30 | 1 | 1006.0 |
| 20260505212114 | 55 | 13 | 0.0 | 0.0 | 0.09 | 0.29 | 0.29 | 1 | 1006.1 |
| 20260505211114 | 55 | 13 | 0.0 | 0.0 | 0.09 | 0.28 | 0.28 | 1 | 1006.1 |
| 20260505210114 | 55 | 13 | 0.0 | 0.0 | 0.09 | 0.27 | 0.27 | 1 | 1006.1 |
| 20260505205113 | 55 | 13 | 0.0 | 0.0 | 0.09 | 0.25 | 0.25 | 1 | 1006.1 |
| 20260505204113 | 55 | 13 | 0.0 | 0.0 | 0.09 | 0.24 | 0.24 | 1 | 1006.0 |
| 20260505203113 | 55 | 13 | 1.0 | 5.0 | 0.09 | 0.22 | 0.22 | 1 | 1006.0 |
| 20260505202113 | 55 | 13 | 0.0 | 3.0 | 0.08 | 0.20 | 0.20 | 1 | 1006.1 |
| 20260505201113 | 55 | 13 | 0.0 | 0.0 | 0.06 | 0.19 | 0.19 | 1 | 1006.1 |
| 20260505200113 | 55 | 13 | 0.0 | 0.0 | 0.05 | 0.17 | 0.17 | 1 | 1006.2 |
| 20260505195113 | 55 | 13 | 0.0 | 0.0 | 0.04 | 0.19 | 0.16 | 1 | 1006.2 |
| 20260505193113 | 56 | 13 | 0.0 | 0.0 | 0.02 | 0.17 | 0.13 | 1 | 1006.2 |
| 20260505192112 | 56 | 13 | 0.0 | 0.0 | 0.02 | 0.16 | 0.13 | 1 | 1006.2 |
| 20260505191112 | 56 | 13 | 0.0 | 0.0 | 0.02 | 0.16 | 0.13 | 1 | 1006.2 |
| 20260505190112 | 56 | 13 | 0.0 | 0.0 | 0.03 | 0.16 | 0.13 | 1 | 1006.1 |
| 20260505185112 | 56 | 13 | 0.0 | 3.0 | 0.02 | 0.24 | 0.12 | 1 | 1005.9 |
| 20260505184112 | 56 | 14 | 0.0 | 4.0 | 0.04 | 0.24 | 0.12 | 1 | 1006.0 |
| 20260505183112 | 56 | 14 | 0.0 | 0.0 | 0.03 | 0.24 | 0.11 | 1 | 1006.0 |
| 20260505182112 | 56 | 14 | 0.0 | 10.0 | 0.05 | 0.24 | 0.11 | 1 | 1006.0 |
| 20260505180112 | 57 | 26 | 0.0 | 4.0 | 0.05 | 0.22 | 0.09 | 1 | 1006.0 |
| 20260505175112 | 57 | 28 | 1.0 | 5.0 | 0.06 | 0.26 | 0.09 | 1 | 1005.9 |
| 20260505174111 | 57 | 19 | 0.0 | 0.0 | 0.06 | 0.24 | 0.08 | 1 | 1006.0 |
| 20260505173111 | 57 | 5 | 1.0 | 9.0 | 0.06 | 0.24 | 0.08 | 1 | 1005.9 |
| 20260505172111 | 57 | 53 | 1.0 | 5.0 | 0.05 | 0.23 | 0.06 | 1 | 1006.0 |
| 20260505170111 | 58 | 53 | 1.0 | 5.0 | 0.03 | 0.21 | 0.05 | 1 | 1006.3 |
| 20260505165111 | 59 | 53 | 2.0 | 7.0 | 0.02 | 0.20 | 0.03 | 1 | 1006.3 |
| 20260505164111 | 60 | 56 | 0.0 | 0.0 | 0.00 | 0.18 | 0.02 | 1 | 1006.4 |
| 20260505163110 | 60 | 56 | 1.0 | 5.0 | 0.00 | 0.18 | 0.02 | 1 | 1006.5 |
| 20260505161110 | 61 | 52 | 1.0 | 6.0 | 0.00 | 0.18 | 0.02 | 1 | 1006.6 |
| 20260505160110 | 62 | 54 | 0.0 | 3.0 | 0.00 | 0.18 | 0.02 | 1 | 1006.6 |
| 20260505153110 | 62 | 36 | 1.0 | 7.0 | 0.00 | 0.18 | 0.02 | 1 | 1006.8 |
| 20260505152110 | 62 | 16 | 4.0 | 10.0 | 0.00 | 0.18 | 0.02 | 1 | 1006.7 |
| 20260505151110 | 62 | 61 | 4.0 | 10.0 | 0.00 | 0.18 | 0.02 | 1 | 1006.6 |
| 20260505150110 | 62 | 55 | 3.0 | 11.0 | 0.00 | 0.18 | 0.02 | 1 | 1006.8 |
| 20260505140109 | 65 | 336 | 0.0 | 3.0 | 0.00 | 0.18 | 0.02 | 10 | 1007.2 |
| 20260505130113 | 68 | 246 | 0.0 | 7.0 | 0.00 | 0.18 | 0.02 | 41 | 1007.8 |
| 20260505124113 | 68 | 243 | 0.0 | 3.0 | 0.00 | 0.18 | 0.02 | 42 | 1008.0 |